CW2099 Weather Reports


Display with metric or nautical units.
time (UTC)temp
F
wind
direction
speed
MPH
gust
MPH
rain 1hr
in
rain 24hr
in
rain mn
in
humidity
%
barometer
mb
20260508064510 35 101 0.0 0.0 0.00 0.00 0.00 57 1009.2
20260508063008 35 101 0.0 0.0 0.00 0.00 0.00 58 1009.3
20260508061508 35 101 0.0 0.0 0.00 0.00 0.00 56 1009.6
20260508060005 35 101 0.0 0.0 0.00 0.00 0.00 54 1009.7
20260508054502 35 101 0.0 0.0 0.00 0.00 0.00 52 1009.7
20260508053106 36 101 0.0 0.0 0.00 0.00 0.00 50 1009.7
20260508051555 37 101 0.0 0.0 0.00 0.00 0.00 50 1009.9
20260508050058 37 101 0.0 0.0 0.00 0.00 0.00 48 1010.0
20260508044551 38 101 0.0 0.0 0.00 0.00 0.00 47 1010.0
20260508043101 39 101 0.0 0.0 0.00 0.00 0.00 47 1010.0
20260508041550 39 101 0.0 0.0 0.00 0.00 0.00 45 1010.0
20260508040050 40 101 0.0 1.0 0.00 0.00 0.00 42 1010.0
20260508034551 41 101 0.0 0.0 0.00 0.00 0.00 40 1010.1
20260508033051 41 101 0.0 0.0 0.00 0.00 0.00 39 1010.2
20260508031553 42 101 0.0 0.0 0.00 0.00 0.00 38 1010.2
20260508030057 43 101 0.0 0.0 0.00 0.00 0.00 39 1010.4
20260508024556 43 101 0.0 2.0 0.00 0.00 0.00 36 1010.5
20260508023049 43 253 1.0 3.0 0.00 0.00 0.00 36 1010.4
20260508021549 43 253 0.0 0.0 0.00 0.00 0.00 34 1010.3
20260508020049 44 253 0.0 0.0 0.00 0.00 0.00 33 1010.3
20260508014547 44 253 0.0 2.0 0.00 0.00 0.00 32 1010.0
20260508013048 45 126 1.0 6.0 0.00 0.00 0.00 30 1009.8
20260508011549 45 48 1.0 3.0 0.00 0.00 0.00 29 1009.6
20260508004547 45 52 0.0 0.0 0.00 0.00 0.00 26 1009.2
20260508003047 46 52 0.0 2.0 0.00 0.00 0.00 25 1009.1
20260508001548 46 89 0.0 3.0 0.00 0.00 0.00 24 1009.0
20260508000045 46 59 0.0 4.0 0.00 0.00 0.00 25 1008.9
20260507234547 46 329 1.0 9.0 0.00 0.00 0.00 25 1009.0
20260507233045 46 57 1.0 6.0 0.00 0.00 0.00 25 1009.0
20260507231544 47 67 1.0 6.0 0.00 0.00 0.00 24 1008.9
20260507230043 47 33 0.0 4.0 0.00 0.00 0.00 25 1009.2
20260507224542 46 188 0.0 2.0 0.00 0.00 0.00 25 1009.6
20260507223042 46 103 1.0 3.0 0.00 0.00 0.00 25 1009.4
20260507221540 46 73 0.0 6.0 0.00 0.00 0.00 27 1009.6
20260507220040 47 245 0.0 3.0 0.00 0.00 0.00 25 1009.5
20260507214538 47 105 1.0 6.0 0.00 0.00 0.00 25 1009.6
20260507213040 47 262 0.0 6.0 0.00 0.00 0.00 27 1009.4
20260507211535 46 39 1.0 3.0 0.00 0.00 0.00 31 1009.6
20260507210033 45 52 1.0 4.0 0.00 0.00 0.00 29 1009.7
20260507204532 45 105 1.0 9.0 0.00 0.00 0.00 30 1009.8
20260507203032 46 57 2.0 4.0 0.00 0.00 0.00 30 1010.0
20260507201536 45 65 2.0 4.0 0.00 0.00 0.00 30 1010.2
20260507200029 45 104 2.0 5.0 0.00 0.00 0.00 29 1010.2
20260507194527 45 42 1.0 6.0 0.00 0.00 0.00 33 1010.2
20260507193029 44 65 3.0 9.0 0.00 0.00 0.00 35 1010.5
20260507191526 44 49 1.0 3.0 0.00 0.00 0.00 36 1010.5
20260507190022 44 134 2.0 5.0 0.00 0.00 0.00 35 1010.4
20260507184520 43 184 1.0 5.0 0.00 0.00 0.00 36 1010.5
20260507183033 43 23 3.0 8.0 0.00 0.00 0.00 36 1010.5
20260507181518 43 71 1.0 7.0 0.00 0.00 0.00 37 1010.5
20260507180019 43 20 1.0 7.0 0.00 0.00 0.00 36 1010.7
20260507174520 43 68 2.0 10.0 0.00 0.00 0.00 35 1010.6
20260507173015 43 161 1.0 4.0 0.00 0.00 0.00 35 1010.6
20260507171516 42 277 2.0 4.0 0.00 0.00 0.00 43 1010.9
20260507170012 40 80 0.0 4.0 0.00 0.00 0.00 47 1011.2
20260507164511 39 113 0.0 4.0 0.00 0.00 0.00 51 1011.6
20260507163010 42 28 2.0 4.0 0.00 0.00 0.00 38 1011.6
20260507161509 42 141 2.0 4.0 0.00 0.00 0.00 38 1011.4
20260507160007 41 48 0.0 9.0 0.00 0.00 0.00 39 1011.7
20260507154502 40 71 1.0 9.0 0.00 0.00 0.00 42 1012.0
20260507153101 40 44 3.0 9.0 0.00 0.00 0.00 44 1011.8
20260507151601 40 31 4.0 7.0 0.00 0.00 0.00 44 1011.9
20260507150058 39 46 3.0 6.0 0.00 0.00 0.00 45 1012.1
20260507144603 39 57 5.0 11.0 0.00 0.00 0.00 45 1012.1
20260507143108 38 95 3.0 6.0 0.00 0.00 0.00 45 1012.1
20260507141608 38 107 0.0 3.0 0.00 0.00 0.00 47 1012.3
20260507140053 38 93 2.0 6.0 0.00 0.00 0.00 47 1012.4
20260507134554 38 96 2.0 5.0 0.00 0.00 0.00 47 1012.6
20260507133050 37 72 1.0 4.0 0.00 0.00 0.00 48 1012.4
20260507131600 36 105 1.0 4.0 0.00 0.00 0.00 49 1012.4
20260507130047 36 73 1.0 5.0 0.00 0.00 0.00 50 1012.4
20260507124545 36 38 0.0 4.0 0.00 0.00 0.00 51 1012.4
20260507123100 35 24 0.0 2.0 0.00 0.00 0.00 51 1012.4
20260507121545 35 23 0.0 4.0 0.00 0.00 0.00 51 1012.5
20260507120044 35 30 0.0 2.0 0.00 0.00 0.00 51 1012.4
20260507114543 34 30 1.0 2.0 0.00 0.00 0.00 51 1012.2
20260507113042 34 30 0.0 3.0 0.00 0.00 0.00 52 1012.2
20260507111542 34 30 0.0 1.0 0.00 0.00 0.00 52 1012.0
20260507110040 34 30 0.0 1.0 0.00 0.00 0.00 51 1012.1
20260507104540 34 30 0.0 1.0 0.00 0.00 0.00 51 1012.1
20260507103039 34 30 0.0 2.0 0.00 0.00 0.00 51 1012.2
20260507101538 34 30 0.0 1.0 0.00 0.00 0.00 51 1012.1
20260507100051 34 30 0.0 1.0 0.00 0.00 0.00 51 1012.1
20260507094537 35 30 0.0 3.0 0.00 0.00 0.00 50 1012.1
20260507093036 35 30 0.0 2.0 0.00 0.00 0.00 50 1012.0
20260507091539 35 30 0.0 2.0 0.00 0.00 0.00 50 1012.2
20260507090033 35 30 0.0 3.0 0.00 0.00 0.00 50 1012.2
20260507084534 35 30 0.0 2.0 0.00 0.00 0.00 50 1012.3
20260507083029 35 30 0.0 1.0 0.00 0.00 0.00 50 1012.3
20260507081530 35 30 0.0 1.0 0.00 0.00 0.00 49 1012.3
20260507080150 35 30 0.0 3.0 0.00 0.00 0.00 49 1012.4
20260507074527 35 30 0.0 0.0 0.00 0.00 0.00 49 1012.3
20260507073030 35 30 0.0 0.0 0.00 0.00 0.00 49 1012.5
20260507071528 35 30 0.0 2.0 0.00 0.00 0.00 49 1012.6
20260507070023 36 30 0.0 1.0 0.00 0.00 0.00 48 1012.8